Location: São Paulo
(23.5507°S, 46.6334°W)
Time: 07:58:03
(UTC-03:00)

Transit 4A - Pass Details

Date: 24 February 2026
Orbit: 864 x 977 km, 66.8° (Epoch: 11 March)

Event Time Altitude Azimuth Distance (km) Brightness Sun altitude
Rises 23:45:24 0° 200° (SSW) 3,495 11.4 -56.3°
Enters shadow 23:45:39 - 200° (SSW) 3,400 11.3 -56.3°
Reaches altitude 10° 23:47:55 10° 198° (SSW) 2,540 - -56.4°
Maximum altitude 23:53:46 73° 113° (ESE) 908 - -56.7°
Drops below altitude 10° 23:59:31 10° 28° (NNE) 2,496 - -57.0°
Sets 00:01:58 0° 26° (NNE) 3,430 - -57.0°
